TimePST,TemperatureF,Dew PointF,Humidity,Sea Level PressureIn,VisibilityMPH,Wind Direction,Wind SpeedMPH,Gust SpeedMPH,PrecipitationIn,Events,Conditions,WindDirDegrees,DateUTC
12:56 AM,44.1,41.0,89,30.25,10.0,South,4.6,-,0.00,,Overcast,170,2013-01-29 08:56:00
1:56 AM,44.1,41.0,89,30.26,10.0,SSE,8.1,-,N/A,,Overcast,160,2013-01-29 09:56:00
2:56 AM,44.1,42.1,93,30.26,10.0,South,8.1,-,N/A,,Overcast,170,2013-01-29 10:56:00
3:56 AM,45.0,42.1,90,30.29,10.0,Calm,Calm,-,N/A,,Overcast,0,2013-01-29 11:56:00
4:56 AM,44.1,42.1,93,30.30,10.0,SSE,9.2,-,N/A,,Overcast,160,2013-01-29 12:56:00
5:56 AM,45.0,43.0,93,30.31,10.0,South,11.5,-,N/A,,Overcast,180,2013-01-29 13:56:00
6:56 AM,44.1,43.0,96,30.34,9.0,South,10.4,-,N/A,,Overcast,180,2013-01-29 14:56:00
7:56 AM,45.0,43.0,93,30.35,10.0,SSE,11.5,-,0.00,Rain,Light Rain,160,2013-01-29 15:56:00
8:56 AM,45.0,43.0,93,30.38,10.0,South,9.2,-,0.01,Rain,Light Rain,180,2013-01-29 16:56:00
9:35 AM,44.6,42.8,93,30.39,9.0,SSE,8.1,-,0.00,Rain,Light Rain,150,2013-01-29 17:35:00
9:56 AM,45.0,44.1,97,30.41,10.0,South,9.2,-,0.01,Rain,Light Rain,170,2013-01-29 17:56:00
10:56 AM,45.0,44.1,97,30.43,10.0,South,12.7,-,0.00,,Overcast,180,2013-01-29 18:56:00
11:56 AM,46.0,44.1,93,30.44,10.0,South,10.4,-,0.00,,Overcast,190,2013-01-29 19:56:00
12:56 PM,46.9,45.0,93,30.45,10.0,SSW,6.9,-,N/A,,Overcast,200,2013-01-29 20:56:00
1:56 PM,46.9,44.1,90,30.45,10.0,South,8.1,-,N/A,,Overcast,190,2013-01-29 21:56:00
2:56 PM,48.0,44.1,86,30.45,10.0,South,10.4,-,N/A,,Overcast,180,2013-01-29 22:56:00
3:51 PM,46.4,44.6,93,30.46,10.0,South,11.5,-,N/A,,Overcast,170,2013-01-29 23:51:00
3:56 PM,46.9,44.1,90,30.47,10.0,South,11.5,-,N/A,,Overcast,180,2013-01-29 23:56:00
4:56 PM,46.9,44.1,90,30.47,10.0,South,12.7,-,N/A,,Overcast,190,2013-01-30 00:56:00
5:03 PM,46.4,42.8,87,30.47,10.0,South,10.4,-,N/A,,Overcast,190,2013-01-30 01:03:00
5:56 PM,46.9,43.0,86,30.48,10.0,South,10.4,-,N/A,,Overcast,190,2013-01-30 01:56:00
6:56 PM,46.0,42.1,86,30.49,10.0,SSW,9.2,-,N/A,,Overcast,200,2013-01-30 02:56:00
7:56 PM,46.0,41.0,83,30.50,10.0,SSW,8.1,-,N/A,,Overcast,200,2013-01-30 03:56:00
8:56 PM,45.0,41.0,86,30.50,10.0,South,6.9,-,N/A,,Overcast,190,2013-01-30 04:56:00
9:56 PM,43.0,39.9,89,30.50,10.0,South,8.1,-,N/A,,Clear,190,2013-01-30 05:56:00
10:56 PM,44.1,41.0,89,30.49,10.0,South,10.4,-,N/A,,Overcast,180,2013-01-30 06:56:00
11:56 PM,44.1,41.0,89,30.49,10.0,South,11.5,18.4,N/A,,Overcast,180,2013-01-30 07:56:00